Location: Gourel Kotch�
(15.1060°N, 12.6833°W)
Time: 07:13:11
(UTC+00:00)

Daily predictions for brighter satellites

Satellite Brightness Start Highest point End
(mag) Time Altitude Azimuth Time Altitude Azimuth Time Altitude Azimuth
Ariane H10 3.6 18:38:31 10° SSW 18:39:56 14° SSE 18:41:40 10° SE
COSMO-SKYMED 1 2.5 18:37:00 10° NNE 18:41:20 80° ESE 18:45:39 10° S
PSLV R/B 4.0 18:42:02 10° NNE 18:46:00 58° ESE 18:49:58 10° S
Cosmos 2298 Rocket 4.0 18:41:38 10° N 18:46:55 71° ENE 18:52:12 10° SSE
ATLAS 5 CENTAUR R/B 3.4 18:41:18 10° NW 18:47:51 62° WSW 18:54:59 10° SSE
Cosmos 2150 Rocket 3.9 18:43:08 10° N 18:48:14 65° ENE 18:53:20 10° SSE
Cosmos 1151 Rocket 2.9 18:45:38 10° S 18:49:57 77° E 18:54:14 10° N
Sich 1 3.1 18:46:09 10° N 18:50:24 53° E 18:54:35 10° SSE
CZ-2C R/B 4.4 18:52:02 10° E 18:52:51 10° E 18:53:41 10° ESE
Cosmos 1328 Rocket 3.4 18:51:47 10° S 18:56:04 79° E 19:00:21 10° N
Cosmos 1356 3.8 18:53:10 10° NNE 18:56:22 38° E 18:59:34 10° SSE
MAQSAT/ARIANE V 3.9 18:48:43 10° WSW 18:57:49 27° SSW 19:00:43 10° SE
Lacrosse 5 rocket 4.1 18:57:09 10° WNW 18:57:49 10° NW 18:58:29 10° NW
CZ-4B R/B 4.2 18:58:10 10° NW 19:00:12 16° WNW 19:02:16 10° WSW
Cosmos 1805 Rocket 3.9 18:57:04 10° N 19:01:28 70° W 19:05:50 10° S
CZ-2D R/B 4.1 18:59:10 10° SE 19:02:24 27° ENE 19:05:39 10° NNE
Cosmos 1125 Rocket 3.5 18:57:45 10° N 19:02:52 60° ENE 19:08:01 10° SSE
Cosmos 2366 rocket 4.5 18:58:05 10° NNE 19:03:39 36° E 19:09:11 10° SSE
TIMED 4.4 19:00:10 10° S 19:04:31 82° ESE 19:08:52 10° NNE
Meteor 1-4 Rocket 2.5 19:00:58 10° S 19:04:40 71° E 19:08:18 10° N
CZ-4 R/B 2.6 19:03:41 10° ESE 19:06:26 19° ENE 19:07:50 16° NE
Cosmos 1812 4.2 19:04:02 10° SE 19:06:32 17° E 19:06:42 17° E
Cosmos 1666 Rocket 3.7 19:03:27 10° N 19:07:45 52° E 19:12:05 10° SSE
Cosmos 489 Rocket 4.4 19:02:23 10° S 19:08:35 87° ESE 19:14:47 10° NNE
Cosmos 2278 Rocket 2.2 19:06:06 10° NNW 19:11:47 88° WSW 19:17:27 10° SSE
CZ-3A R/B 3.2 19:09:51 10° WNW 19:13:06 21° NNW 19:14:27 15° NNE
Cosmos 1939 Rocket 2.6 19:14:45 10° SSE 19:18:36 83° ENE 19:22:26 10° N
DELTA 2 R/B (1) 3.9 19:13:31 10° NW 19:18:47 44° NE 19:22:13 20° E
Cosmos 1603 3.7 19:16:10 10° S 19:21:44 59° ESE 19:26:22 15° NNE
CZ-3B R/B 4.2 19:15:25 10° SW 19:22:02 64° SSE 19:35:13 22° ENE
DMSP B5D1-3 4.4 19:17:08 10° NNE 19:22:15 75° ESE 19:27:21 10° S
SL-24 R/B - RUBIN 2 4.1 19:19:24 10° N 19:24:49 50° ENE 19:29:34 10° SE
H-2A R/B 3.0 19:21:33 10° SE 19:25:57 26° ENE 19:25:58 26° ENE
Meteor 1-25 Rocket 4.2 19:20:40 10° N 19:26:15 63° E 19:31:55 10° SSE
Cosmos 2341 Rocket 4.4 19:22:01 10° N 19:28:16 67° W 19:34:33 10° S
Cosmos 1943 3.1 19:27:08 10° S 19:32:41 66° ESE 19:36:27 21° NNE
Nadezhda 3 Rocket 4.0 19:26:37 10° S 19:32:46 58° E 19:38:58 10° NNE
Sakura Rocket 3.8 19:30:21 10° W 19:34:22 45° NNW 19:36:28 29° NE
USA 81 4.3 19:29:58 10° N 19:35:14 72° W 19:40:28 10° S
Meteosat 1 Rocket2 3.7 19:30:46 10° NW 19:35:31 36° NNE 19:36:06 34° NE
Hubble Space Telescope 2.5 19:33:54 10° SSW 19:36:55 20° SSE 19:37:24 19° SE
NOSS 3-2 (C) 3.8 19:32:21 10° S 19:37:01 32° ESE 19:37:31 31° E
Cosmos 1633 Rocket 3.2 19:34:00 10° N 19:38:20 74° W 19:42:38 10° S
USA 281 3.4 19:33:37 10° SE 19:39:46 44° ENE 19:45:55 10° N
Cosmos 2228 Rocket 3.1 19:37:05 10° S 19:41:37 64° E 19:43:23 35° NNE
Cosmos 923 Rocket 4.0 19:37:19 10° S 19:42:25 58° ESE 19:44:09 38° NE
Centaur AC-119 3.6 19:38:23 10° W 19:42:38 28° SW 19:43:51 19° S
Cosmos 2285 Rocket 4.2 19:37:29 10° N 19:43:29 43° ENE 19:49:24 10° SE
Intelsat 5-2 Rocket 4.3 19:28:17 10° WNW 19:44:39 67° N 19:46:54 39° E
YAOGAN 1 2.4 19:45:56 10° SSE 19:50:13 71° ENE 19:51:41 40° N
CENTAUR R/B 2.3 19:48:54 10° S 19:53:54 49° ESE 19:54:04 49° ESE
Okean-O 3.0 19:58:07 10° S 20:02:30 62° W 20:06:52 10° NNW
SWIFT 4.4 20:01:09 10° SSW 20:03:27 18° S 20:03:27 18° S
GPS 2-15 Rocket1 3.7 20:00:50 10° WNW 20:05:02 49° NNW 20:05:02 49° NNW
NOSS 3-2 (A) 3.6 20:01:47 10° SW 20:07:00 57° WNW 20:09:02 36° N
DMSP B5D2-2 4.4 20:08:40 49° SSE 20:08:40 49° SSE 20:12:43 10° S
GPS 2-18 Rocket1 4.4 20:04:02 10° WNW 20:06:12 34° WNW 20:06:12 34° WNW
CZ-2C R/B 3.5 20:02:26 10° S 20:07:50 63° WSW 20:12:57 10° NNW
Cosmos 1680 Rocket 3.4 20:06:41 10° SSW 20:11:50 88° SSW 20:11:50 88° SSW
Helios 1A Rocket 4.1 20:08:51 10° S 20:12:40 40° W 20:16:24 10° NNW
Cosmos 1470 Rocket 4.4 20:11:55 29° NW 20:13:44 48° W 20:17:54 10° SSW
Palapa 6 Rocket 4.3 20:13:45 10° WNW 20:20:48 64° NNE 20:21:08 63° NNE
USA 238 DEB 4.1 20:15:07 10° SW 20:21:26 55° WNW 20:23:43 37° N
USA 238 4.1 20:15:12 10° SW 20:21:31 55° WNW 20:23:46 38° N
Lacrosse 4 Rocket 4.0 20:20:44 10° S 20:21:07 12° S 20:21:07 12° S
CZ-2C R/B 3.3 20:33:02 47° WNW 20:33:05 47° WNW 20:38:02 10° SSW
Meteor 1-27 Rocket 4.5 20:33:31 10° SSW 20:37:28 45° SW 20:37:28 45° SW
CZ-4 R/B 4.3 20:39:11 10° SW 20:41:15 14° W 20:43:22 10° WNW
H-2A R/B 4.2 21:00:53 10° SSW 21:05:07 23° W 21:06:36 21° WNW
